Tracking 28790 objects as of 19-Apr-2024
HD Live streaming from Space Station
objects crossing your sky now

COSMOS 1802

Track COSMOS 1802 now!
10-day predictions
COSMOS 1802 is classified as:


NORAD ID: 17159
Int'l Code: 1986-093A
Perigee: 964.8 km
Apogee: 1,028.1 km
Inclination: 82.9 °
Period: 104.9 minutes
Semi major axis: 7367 km
RCS: 2.3219 m2 (large)
Launch date: November 24, 1986
Source: Commonwealth of Independent States (former USSR) (CIS)
Launch site: PLESETSK MISSILE AND SPACE COMPLEX (PKMTR)
Your satellite tracking list
Your tracking list is empty




NASA's NSSDC Master Catalog

Two Line Element Set (TLE):
1 17159U 86093A   24109.87180060  .00000114  00000-0  10688-3 0  9997
2 17159  82.9318  44.7005 0042947 155.5266 265.3248 13.72856248873321
Source of the keplerian elements: AFSPC